Isis 1

operational
NORAD ID: 3669 Int'l Des: 1969-009 Owner: CRC Country: CA
MEOELLIPTICALPOLAR

Über Isis 1

Beschreibung wird geladen...

Live-Position

3D-Globus wird geladen...

Nächste Überflüge

Höhenverlauf

Altitude vs Time

uPlot chart will show altitude changes over time

Zweizeiliger Elementsatz

1 03669U 69009A 26063.32101461 .00000252 00000-0 16286-3 0 9998
2 03669 88.4548 155.8939 1707828 99.9922 279.7323 11.30412469347925
Epoch: 4. März 2026 • Age: 20 hours

Aktueller Status

Höhe 3285.0 km
Geschwindigkeit 5.92 km/s
Subsatellitenpunkt -74.20°S, 116.1°W
Typ other

Große Konstellationen

Loading constellations...